Flag for Panama Weather past 2 weeks in Panama, Panama

Now
82 °F

Passing clouds.


Feels Like: 86 °F
Forecast: 77 / 88 °F
Wind: 8 mph from Northwest

Location: Marcos A. Gelabert

Current Time: Mar 30, 2015 at 8:07:25 PM

Latest Report: Mar 30, 2015 at 7:00 PM


Visibility: N/A

Pressure: 29.89 "Hg

Humidity: 66%

Dew point: 70 °F

Location of PanamaLocation

Historic Weather in Panama — Graph

°F

Panama temperature yesterday

Maximum temperature yesterday: 90 °F (at 12:00 PM)
Minimum temperature yesterday: 77 °F (at 6:00 AM)
Average temperature yesterday: 82 °F

Past Weeks' High & Low Weather Summary

 TemperatureHumidityPressure
High91 °F (Mar 19, 1:00 PM)94% (Mar 21, 6:00 AM)30.04 "Hg (Mar 21, 6:00 AM)
Low73 °F (Mar 22, 6:00 AM)36% (Mar 26, 4:00 PM)29.80 "Hg (Mar 15, 7:00 PM)
Average83 °F66%29.92 "Hg
* Reported Mar 15 7:00 PM — Mar 30 7:00 PM, Panama, Weather by CustomWeather, © 2015

Note: Actual official high and low records may vary slightly from our data, if they occured in-between our weather recording intervals... More about our weather records

Advertising

Panama weather history for previous 24 hours

 ConditionsComfort  
Time TempWeatherWind HumidityBarometerVisibility
7:00 PM
Mon, Mar 30
82 °FPassing clouds.8 mph66%29.89 "HgN/A
6:00 PM86 °FPassing clouds.10 mph59%29.83 "HgN/A
5:00 PM88 °FPassing clouds.12 mph55%29.83 "HgN/A
4:00 PM88 °FPassing clouds.12 mph59%29.83 "HgN/A
3:00 PM90 °FPassing clouds.10 mph52%29.86 "HgN/A
2:00 PM90 °FScattered clouds.9 mph52%29.89 "HgN/A
1:00 PM90 °FScattered clouds.12 mph55%29.92 "HgN/A
12:00 PM88 °FScattered clouds.10 mph55%29.95 "HgN/A
11:00 AM86 °FScattered clouds.12 mph59%29.98 "HgN/A
10:00 AM86 °FPassing clouds.12 mph62%29.98 "HgN/A
9:00 AM82 °FPassing clouds.9 mph74%29.98 "HgN/A
8:00 AM79 °FPassing clouds.9 mph84%29.95 "Hg6 mi
7:00 AM77 °FPassing clouds.2 mph89%29.95 "Hg6 mi
6:00 AM75 °FPassing clouds.5 mph89%29.92 "HgN/A
10:00 PM
Sun, Mar 29
79 °FPassing clouds.2 mph84%29.98 "HgN/A
9:00 PM79 °FPassing clouds.5 mph84%29.98 "HgN/A
8:00 PM81 °FPassing clouds.5 mph79%29.95 "HgN/A
Weather by CustomWeather, © 2015

See weather overviewHow to use our weather pages